Location: Bergnershof
(48.9468°N, 10.9431°E)
Time: 20:11:56
(UTC+00:00)

Daily predictions for brighter satellites

Satellite Brightness Start Highest point End
(mag) Time Altitude Azimuth Time Altitude Azimuth Time Altitude Azimuth
CZ-2C R/B 3.4 17:23:26 10° SSE 17:29:10 85° WSW 17:34:42 10° NNW
Cosmos 2322 Rocket 2.6 17:26:16 10° S 17:31:26 40° ESE 17:36:38 10° NE
Aureole 2 Rocket 2.8 17:29:55 10° N 17:32:05 24° ENE 17:34:12 10° ESE
Sich 1 3.2 17:30:17 10° S 17:34:41 85° WNW 17:39:08 10° N
Nadezhda 3 Rocket 4.2 17:28:51 10° N 17:35:04 51° ENE 17:41:14 10° SSE
Cosmos 1461 3.2 17:31:49 10° SW 17:36:33 84° SE 17:41:20 10° NE
ATLAS 5 CENTAUR R/B 3.7 17:21:25 10° SW 17:37:13 69° NW 17:41:19 10° NE
Meteor 1-25 Rocket 4.3 17:32:57 10° S 17:38:37 62° E 17:44:14 10° NNE
Cosmos 1697 Rocket 4.5 17:33:42 10° WSW 17:38:44 32° NW 17:43:47 10° NNE
Cosmos 2074 Rocket 4.0 17:36:30 10° S 17:42:43 74° E 17:48:58 10° NNE
Cosmos 2154 Rocket 4.2 17:37:05 10° SSE 17:43:01 50° E 17:48:59 10° NNE
Abrixas rocket 1.6 17:41:15 10° WSW 17:43:43 61° SSE 17:45:57 12° E
YAOGAN 1 2.5 17:39:52 10° SSE 17:44:09 68° ENE 17:48:28 10° N
Helios 1A Rocket 3.3 17:40:35 10° SE 17:44:23 41° ENE 17:48:11 10° N
FALCON 9 DEB 3.9 17:42:29 10° WNW 17:45:29 39° N 17:48:31 10° ENE
APEX 4.0 17:43:25 10° NW 17:46:05 37° WSW 17:48:38 10° S
COSMO-SKYMED 1 2.9 17:44:57 10° N 17:49:18 71° WNW 17:53:37 10° SSW
Cosmos 2219 Rocket 3.8 17:47:12 10° ESE 17:49:25 12° E 17:51:39 10° ENE
SJ-6B 4.4 17:47:14 10° ESE 17:50:02 18° ENE 17:52:49 10° NNE
GP-B 3.9 17:47:47 10° SE 17:51:39 30° ENE 17:55:31 10° NNE
Cosmos 2263 Rocket 3.6 17:49:25 10° NW 17:54:38 42° WSW 17:59:49 10° S
Cosmos 1992 Rocket 4.2 17:50:16 10° S 17:55:18 50° ESE 18:00:21 10° NNE
Meteor 1-18 Rocket 4.3 17:49:24 10° N 17:55:22 72° ENE 18:01:15 10° SSE
Cosmos 968 Rocket 3.8 17:50:21 10° NNW 17:55:37 76° WSW 18:00:52 10° SSE
SL-16 R/B 2.2 17:50:13 10° SSW 17:55:52 74° ESE 18:01:33 10° NNE
ARGOS 3.1 17:51:53 10° SSE 17:57:17 70° ENE 18:02:42 10° N
FALCON 9 DEB 3.9 17:55:03 10° WNW 17:58:03 37° N 18:00:32 13° ENE
USA 234 4.1 17:53:13 10° ENE 17:58:49 30° SE 18:04:24 10° S
Cosmos 1486 Rocket 4.2 17:54:05 10° NNW 17:59:23 80° WSW 18:04:41 10° SSE
Cosmos 1515 3.6 17:55:51 10° N 17:59:42 85° E 18:03:30 10° S
Okean 1 3.3 17:55:44 10° N 17:59:47 82° E 18:03:49 10° SSE
SJ 16-02 3.3 17:59:26 10° NNE 18:01:19 12° NE 18:02:34 11° ENE
SeaSat 1 2.9 17:57:28 10° NE 18:02:07 40° ESE 18:06:43 10° S
Cosmos 1633 Rocket 3.2 17:58:46 10° S 18:03:11 84° W 18:07:39 10° N
Okean 1-7 3.7 17:59:15 10° N 18:03:15 34° ENE 18:07:12 10° SE
Cosmos 2184 Rocket 4.1 17:57:10 10° S 18:03:20 84° W 18:09:36 10° N
OBJECT-B 2.5 18:03:22 15° ENE 18:03:42 15° ENE 18:05:42 10° NNE
CZ-2C R/B 2.9 18:02:07 10° NNE 18:07:27 48° E 18:12:37 10° S
CZ-4 R/B 2.0 18:04:50 10° S 18:08:37 57° W 18:12:30 10° NNW
H-2A R/B 2.5 18:03:15 10° S 18:08:40 71° WSW 18:14:08 10° NNW
SAR-Lupe-4 3.5 18:06:31 10° NNE 18:10:05 62° ESE 18:13:38 10° S
USA 305 3.7 18:07:27 10° W 18:11:33 43° N 18:14:50 15° ENE
Gbstr 26 Del rocket 3.5 18:09:51 10° W 18:14:15 66° N 18:18:27 17° ENE
SL-8 Rocket 4.5 18:09:26 10° SSE 18:15:03 37° E 18:20:39 10° NNE
Cosmos 2237 4.3 18:09:35 10° S 18:15:11 58° ESE 18:20:49 10° NE
SL-4 R/B 1.8 18:13:13 10° WNW 18:16:45 61° N 18:18:38 24° E
Cosmos 1869 Rocket 4.5 18:16:28 10° SE 18:20:03 26° E 18:23:42 10° NNE
USA 307 3.8 18:18:47 10° WNW 18:22:53 42° N 18:25:41 18° ENE
FALCON 9 DEB 3.1 18:21:01 10° WNW 18:24:27 76° SSW 18:26:13 26° SE
USA 186 2.2 18:25:07 28° NE 18:25:07 28° NE 18:26:47 10° N
ATLAS CENTAUR R/B 1.2 18:21:20 10° SSW 18:24:49 47° ESE 18:26:57 21° ENE
Cosmos 1354 Rocket 4.0 18:20:49 10° NNW 18:26:06 89° NE 18:31:21 10° SSE
USA 306 3.8 18:22:13 10° WNW 18:26:18 42° N 18:28:56 19° ENE
ERS-2 2.2 18:23:41 10° NNE 18:27:22 77° WNW 18:31:00 10° SSW
Cosmos 44 Rocket 4.5 18:22:37 10° NW 18:27:37 46° WSW 18:32:33 10° SSE
Okean-O 3.7 18:24:14 10° S 18:28:30 47° W 18:32:48 10° NNW
FALCON 9 DEB 3.8 18:25:37 10° WNW 18:28:37 38° N 18:29:48 27° NE
SAR-Lupe-1 4.2 18:25:54 10° N 18:29:30 76° WNW 18:33:05 10° SSW
Cosmos 1378 4.5 18:26:42 10° NNE 18:29:15 22° ENE 18:29:15 22° ENE
CSL-04 Rocket 3.8 18:24:13 10° SSE 18:29:47 82° WSW 18:35:19 10° NNW
Cosmos 1844 Rocket 2.6 18:24:18 10° NNW 18:29:54 88° ENE 18:35:29 10° SSE
Cosmos 2366 rocket 4.4 18:24:16 10° SSE 18:30:01 39° E 18:35:51 10° NNE
Cosmos 2084 Rocket 4.3 18:25:59 10° NW 18:30:12 50° SW 18:34:32 10° SSE
FALCON 9 DEB 3.9 18:27:32 10° WNW 18:30:35 38° N 18:31:45 27° NE
CSL-04 Debris 4.4 18:25:42 10° S 18:31:08 75° WSW 18:36:38 10° NNW
USA 308 3.8 18:29:26 10° WNW 18:33:31 41° N 18:35:51 22° ENE
Cosmos 1666 2.9 18:30:49 10° SSE 18:34:21 44° E 18:37:56 10° NNE
Cosmos 1777 Rocket 4.2 18:29:38 10° NNW 18:34:47 52° ENE 18:37:59 22° SE
Cosmos 1503 Rocket 4.3 18:31:08 10° NNW 18:36:18 67° WSW 18:41:25 10° S
Cosmos 2341 Rocket 3.9 18:32:07 10° S 18:38:22 68° E 18:44:36 10° NNE
Meteor 1-5 Rocket 4.1 18:33:24 10° S 18:38:41 64° E 18:44:10 10° NNE
Cosmos 2333 4.5 18:33:51 10° S 18:39:07 43° ESE 18:44:30 10° NE
Cosmos 1844 3.7 18:35:54 10° NNW 18:41:43 90° ENE 18:46:58 13° SSE
Okean 3 3.8 18:37:48 10° N 18:41:51 41° ENE 18:42:57 34° ESE
CZ-4B R/B 4.4 18:40:25 10° NNW 18:42:15 15° WNW 18:44:07 10° WSW
Cosmos 1470 Rocket 4.2 18:38:02 10° SSW 18:42:27 59° WNW 18:46:52 10° N
Ariane Rocket 3.1 18:42:04 22° SE 18:45:09 52° ENE 18:50:08 10° N
Cosmos 2360 Rocket 2.1 18:39:35 10° SSW 18:45:13 82° ESE 18:50:56 10° NNE
Cosmos 2278 Rocket 3.1 18:42:09 10° NNW 18:47:10 31° NE 18:48:36 27° ENE
Cosmos 1727 Rocket 4.2 18:44:05 10° N 18:50:00 45° ENE 18:52:57 27° SE
Cosmos 1500 4.0 18:49:30 10° SSW 18:53:08 51° WNW 18:56:49 10° N
Meteor 2-4 Rocket 4.2 18:47:39 10° NNW 18:53:27 67° W 18:59:18 10° S
Cosmos 1703 Rocket 3.7 18:49:18 10° NNW 18:53:42 74° W 18:58:03 10° S
Cosmos 2333 Rocket 2.4 18:50:01 10° S 18:55:23 46° ESE 19:00:50 10° NE
Cosmos 1689 Rocket 4.5 18:53:23 10° NNW 18:55:48 25° WNW 18:58:13 10° SW
Cosmos 2218 Rocket 4.0 18:50:39 10° S 18:56:57 63° E 19:03:16 10° NNE
ERBS 4.0 18:58:30 10° WNW 19:01:23 26° NNW 19:02:19 23° NNE
Cosmos 1933 Rocket 4.3 18:59:07 10° SSW 19:03:22 52° WNW 19:07:41 10° N
Cosmos 1943 Rocket 4.2 19:03:10 10° N 19:05:53 13° NNE 19:06:52 13° NE
Resurs 01 Rocket 2.4 19:12:41 36° NE 19:12:41 36° NE 19:15:58 10° N
Cosmos 864 Rocket 4.3 19:07:35 10° S 19:13:43 76° E 19:19:56 10° NNE
Cosmos 2322 Rocket 3.5 19:10:13 10° WSW 19:15:29 40° NW 19:20:48 10° NNE
Lacrosse 4 Rocket 3.2 19:12:58 10° SSW 19:14:29 21° S 19:14:29 21° S
SME Rocket 4.1 19:09:04 10° NNE 19:17:39 80° ESE 19:23:08 10° SSW
Abrixas rocket 4.4 19:15:14 10° W 19:16:07 19° W 19:16:07 19° W
Cosmos 1959 Rocket 4.3 19:13:03 10° S 19:19:09 85° E 19:25:18 10° N
FALCON 9 DEB 4.5 19:18:39 10° WNW 19:20:46 34° NW 19:20:46 34° NW
Cosmos 192 4.2 19:17:40 10° SSW 19:22:34 84° ESE 19:27:31 10° NNE
SJ-6B 3.6 19:22:30 29° SSW 19:24:19 52° W 19:28:18 10° NNW
COSMOS 2428 2.7 19:19:52 10° S 19:32:11 - NNE 19:24:51 55° SE
ASTEX 1 3.3 19:21:58 10° N 19:26:53 84° W 19:30:11 21° S
MOS 1 4.4 19:25:33 24° S 19:29:07 73° WSW 19:34:49 10° NNW
Meteor 1-23 Rocket 4.0 19:23:43 10° N 19:29:20 78° ENE 19:30:27 58° SSE
Cosmos 2219 Rocket 2.0 19:26:48 10° SSW 19:32:22 76° ESE 19:37:59 10° NNE
Meteor 1-11 Rocket 3.7 19:26:42 10° SSW 19:32:26 83° WNW 19:38:04 10° N
OBJECT-B 2.6 19:36:26 31° WNW 19:36:26 31° WNW 19:38:43 10° NNW
Resurs 1-3 3.7 19:38:47 70° W 19:38:47 70° W 19:43:10 10° NNW
SeaSat 1 3.8 19:35:03 10° NNE 19:39:37 38° NW 19:44:10 10° WSW
Terra 4.2 19:42:57 12° NNE 19:42:57 12° NNE 19:43:31 10° NNE
SL-16 R/B 4.3 19:35:55 10° W 19:40:35 25° NW 19:45:15 10° NNE
SJ 16-02 2.0 19:36:17 10° NNW 19:39:35 49° N 19:39:35 49° N
USA 234 3.1 19:39:54 42° ENE 19:42:25 86° SSE 19:48:58 10° SW
Meteor 2-20 Rocket 4.2 19:42:43 10° N 19:48:52 78° E 19:49:08 76° ESE
Cosmos 2369 Rocket 4.2 19:47:55 10° N 19:50:42 15° NNE 19:50:42 15° NNE
BREEZE-M DEB (TANK) 3.2 19:48:59 10° W 19:51:09 54° W 19:51:09 54° W
USA 305 4.1 19:47:53 10° WNW 19:50:56 39° NNW 19:50:56 39° NNW
Cosmos 2322 4.0 19:46:46 10° SW 19:52:28 66° WNW 19:58:11 10° NNE
SL-4 R/B 4.1 19:52:55 10° WNW 19:54:13 20° W 19:54:13 20° W
Cosmos 1898 Rocket 4.4 19:54:16 10° NNW 19:57:51 40° N 19:57:51 40° N
Gbstr 26 Del rocket 3.8 19:56:40 10° WNW 20:00:58 66° NW 20:00:58 66° NW
USA 307 4.5 19:59:12 10° WNW 20:01:49 33° NW 20:01:49 33° NW
ATLAS CENTAUR R/B 3.5 20:00:54 10° W 20:03:11 22° NW 20:03:11 22° NW
NOSS 3-3 (A) 4.4 20:10:31 10° NW 20:18:00 83° SW 20:18:42 75° S
NOSS 3-3 (C) 4.4 20:10:37 10° NW 20:18:06 83° SW 20:18:47 76° S
SPOT 3 Rocket 4.3 20:18:38 50° W 20:18:38 50° W 20:23:16 10° NNW
Cosmos 2360 Rocket 4.3 20:25:27 10° W 20:29:56 24° NW 20:34:27 10° N
Cosmos 2278 Rocket 3.0 20:26:02 10° NW 20:30:28 48° WNW 20:30:28 48° WNW
Cosmos 2333 Rocket 3.5 20:34:33 10° WSW 20:39:48 37° NW 20:45:06 10° NNE
Resurs 01 Rocket 4.1 20:50:14 19° WNW 20:50:14 19° WNW 20:52:05 10° NW
Cosmos 1943 Rocket 3.9 20:45:44 10° NNW 20:48:24 26° N 20:48:24 26° N
Cosmos 2219 Rocket 4.2 21:12:24 10° W 21:16:56 25° NW 21:21:31 10° N
USA 234 4.4 21:27:15 38° WNW 21:27:15 38° WNW 21:31:28 10° W
USA 281 4.5 21:34:30 35° NNW 21:34:30 35° NNW 21:38:02 10° NNW
Cosmos 2369 Rocket 4.5 21:30:56 10° NNW 21:32:29 19° NNW 21:32:29 19° NNW
